Glendive, MT

11:03 AM MST on December 11, 2019 (GMT -0700)
Dawson Community

Weather History for KGDV - October, 2019

Change the Weather History Date:

Friday, October 11, 2019

  Actual Average Record
Temperature  
Mean Temperature 30 °F -  
Max Temperature 35 °F 57 °F 83 °F (1995)
Min Temperature 25 °F 33 °F 19 °F (2018)
Degree Days  
Heating Degree Days 35    
Month to date heating degree days 254  
Year to date heating degree days 6121  
Moisture  
Dew Point 19 °F    
Average Humidity 65    
Maximum Humidity 81    
Minimum Humidity 48    
Precipitation  
Precipitation 0.00 in - - ()
Month to date precipitation 0.40  
Year to date precipitation 17.57  
Sea Level Pressure  
Sea Level Pressure 30.26 in    
Wind  
Wind Speed 15 mph (NW)    
Max Wind Speed 23 mph    
Max Gust Speed 30 mph    
Visibility 10 miles    
Events      
Averages and records for this station are not official NWS values.
T = Trace of Precipitation, MM = Missing Value Source: NWS Daily Summary

Daily Weather History Graph

Daily Weather History Graph

Search for Another Location

Airport or City:

Astronomy

Oct. 11, 2019 Rise Set
Actual Time 7:11 AM MDT 6:19 PM MDT
Civil Twilight 6:40 AM MDT 6:50 PM MDT
Nautical Twilight 6:05 AM MDT 7:25 PM MDT
Astronomical Twilight 5:30 AM MDT 8:00 PM MDT
Moon 6:01 PM MDT 4:40 AM MDT
Length of Visible Light 12h 09m
Length of Day
11h 07m
Waxing Gibbous, 96% of the Moon is Illuminated
Oct 11
Waxing Gibbous
Oct 13
Full
Oct 21
Last Quarter
Oct 27
New
Nov 4
First Quarter

Hourly Weather History & Observations

Time (MDT) Temp. Windchill Dew Point Humidity Pressure Visibility Wind Dir Wind Speed Gust Speed Precip Events Conditions
12:56 AM 26.1 °F 14.5 °F 19.0 °F 75% 30.37 in 10.0 mi WNW 13.8 mph - N/A   Overcast
1:56 AM 26.1 °F 15.0 °F 18.0 °F 71% 30.36 in 10.0 mi NW 12.7 mph - N/A   Overcast
2:56 AM 26.1 °F 14.0 °F 18.0 °F 71% 30.35 in 10.0 mi NW 15.0 mph - N/A   Overcast
3:56 AM 26.1 °F 15.0 °F 17.1 °F 69% 30.35 in 10.0 mi NW 12.7 mph 19.6 mph N/A   Overcast
4:56 AM 26.1 °F 15.0 °F 17.1 °F 69% 30.35 in 10.0 mi NW 12.7 mph - N/A   Overcast
5:56 AM 25.0 °F 13.6 °F 16.0 °F 69% 30.35 in 10.0 mi WNW 12.7 mph - N/A   Overcast
6:56 AM 25.0 °F 13.6 °F 16.0 °F 69% 30.35 in 10.0 mi WNW 12.7 mph - N/A   Overcast
7:56 AM 26.1 °F 14.5 °F 16.0 °F 66% 30.35 in 10.0 mi NW 13.8 mph - N/A   Overcast
8:56 AM 28.0 °F 17.0 °F 17.1 °F 63% 30.35 in 10.0 mi NW 13.8 mph - N/A   Mostly Cloudy
9:56 AM 30.0 °F 17.2 °F 16.0 °F 56% 30.33 in 10.0 mi NNW 20.7 mph - N/A   Clear
10:56 AM 32.0 °F 20.5 °F 17.1 °F 54% 30.32 in 10.0 mi NW 18.4 mph - N/A   Partly Cloudy
11:56 AM 33.1 °F 23.0 °F 16.0 °F 50% 30.30 in 10.0 mi NW 15.0 mph 28.8 mph N/A   Partly Cloudy
12:56 PM 34.0 °F 22.7 °F 17.1 °F 50% 30.27 in 10.0 mi WNW 19.6 mph 25.3 mph N/A   Scattered Clouds
1:56 PM 35.1 °F 23.8 °F 17.1 °F 48% 30.24 in 10.0 mi NW 20.7 mph 25.3 mph N/A   Clear
2:56 PM 35.1 °F 23.3 °F 17.1 °F 48% 30.22 in 10.0 mi NW 23.0 mph 29.9 mph N/A   Clear
3:56 PM 35.1 °F 23.8 °F 18.0 °F 50% 30.21 in 10.0 mi NW 20.7 mph 28.8 mph N/A   Clear
4:56 PM 34.0 °F 22.4 °F 19.9 °F 56% 30.20 in 10.0 mi NW 20.7 mph 27.6 mph N/A   Clear
5:56 PM 33.1 °F 22.2 °F 21.0 °F 61% 30.19 in 10.0 mi WNW 17.3 mph - N/A   Clear
6:56 PM 30.0 °F 20.0 °F 23.0 °F 75% 30.18 in 10.0 mi West 12.7 mph - N/A   Clear
7:56 PM 28.9 °F 19.8 °F 23.0 °F 78% 30.16 in 10.0 mi West 10.4 mph - N/A   Clear
8:56 PM 27.0 °F - 21.9 °F 81% 30.16 in 10.0 mi Calm Calm - N/A   Clear
9:56 PM 30.9 °F 19.1 °F 25.0 °F 79% 30.12 in 10.0 mi WNW 18.4 mph 23.0 mph N/A   Clear
10:56 PM 30.0 °F 21.1 °F 24.1 °F 79% 30.12 in 10.0 mi NW 10.4 mph - N/A   Clear
11:56 PM 28.9 °F 19.8 °F 23.0 °F 78% 30.12 in 10.0 mi NNW 10.4 mph - N/A   Clear